| time (UTC) | temp F | wind direction | speed knots | gust knots | rain 1hr in | rain 24hr in | rain mn in | humidity % | barometer mb |
| 20260504201635 | 80 | 109 | 4.3 | 9.6 | 0.00 | 0.00 | 0.00 | 43 | 1015.0 |
| 20260504200135 | 80 | 100 | 2.6 | 12.2 | 0.00 | 0.00 | 0.00 | 44 | 1015.0 |
| 20260504194632 | 81 | 107 | 3.5 | 8.7 | 0.00 | 0.00 | 0.00 | 41 | 1015.2 |
| 20260504193136 | 81 | 173 | 2.6 | 7.8 | 0.00 | 0.00 | 0.00 | 39 | 1015.4 |
| 20260504191635 | 80 | 128 | 3.5 | 7.8 | 0.00 | 0.00 | 0.00 | 41 | 1015.5 |
| 20260504190127 | 81 | 88 | 2.6 | 7.8 | 0.00 | 0.00 | 0.00 | 40 | 1015.8 |
| 20260504184625 | 80 | 168 | 2.6 | 7.0 | 0.00 | 0.00 | 0.00 | 40 | 1016.0 |
| 20260504183121 | 80 | 156 | 2.6 | 4.3 | 0.00 | 0.00 | 0.00 | 41 | 1016.1 |
| 20260504181620 | 80 | 153 | 2.6 | 6.1 | 0.00 | 0.00 | 0.00 | 40 | 1016.3 |
| 20260504180121 | 80 | 121 | 1.7 | 7.0 | 0.00 | 0.00 | 0.00 | 41 | 1016.5 |
| 20260504174622 | 79 | 9 | 4.3 | 8.7 | 0.00 | 0.00 | 0.00 | 38 | 1016.6 |
| 20260504173126 | 79 | 86 | 2.6 | 7.0 | 0.00 | 0.00 | 0.00 | 37 | 1016.7 |
| 20260504171623 | 78 | 82 | 2.6 | 9.6 | 0.00 | 0.00 | 0.00 | 39 | 1016.9 |
| 20260504170119 | 78 | 213 | 1.7 | 6.1 | 0.00 | 0.00 | 0.00 | 39 | 1017.1 |
| 20260504160125 | 76 | 88 | 0.9 | 7.0 | 0.00 | 0.00 | 0.00 | 44 | 1017.8 |
| 20260504150132 | 75 | 57 | 1.7 | 5.2 | 0.00 | 0.00 | 0.00 | 46 | 1018.0 |
| 20260504140128 | 73 | 97 | 1.7 | 6.1 | 0.00 | 0.00 | 0.00 | 53 | 1018.0 |
| 20260504130129 | 67 | 48 | 1.7 | 5.2 | 0.00 | 0.00 | 0.00 | 74 | 1017.9 |
| 20260504120120 | 59 | 78 | 0.0 | 1.7 | 0.00 | 0.00 | 0.00 | 88 | 1017.7 |
| 20260504110125 | 55 | 78 | 0.0 | 1.7 | 0.00 | 0.00 | 0.00 | 87 | 1017.2 |
| 20260504100127 | 56 | 78 | 0.0 | 1.7 | 0.00 | 0.00 | 0.00 | 87 | 1016.9 |
| 20260504090135 | 56 | 78 | 0.0 | 0.0 | 0.00 | 0.00 | 0.00 | 86 | 1016.8 |
| 20260504081631 | 56 | 78 | 0.0 | 1.7 | 0.00 | 0.00 | 0.00 | 85 | 1017.1 |
| 20260504080141 | 56 | 78 | 0.0 | 0.9 | 0.00 | 0.00 | 0.00 | 85 | 1017.1 |
| 20260504070136 | 57 | 78 | 0.0 | 0.9 | 0.00 | 0.00 | 0.00 | 84 | 1016.9 |
| 20260504060134 | 58 | 78 | 0.0 | 1.7 | 0.00 | 0.00 | 0.00 | 83 | 1017.9 |
| 20260504050128 | 60 | 78 | 0.0 | 0.9 | 0.00 | 0.00 | 0.00 | 79 | 1018.1 |
| 20260504044623 | 60 | 78 | 0.0 | 0.0 | 0.00 | 0.00 | 0.00 | 79 | 1018.3 |
| 20260504043123 | 61 | 78 | 0.0 | 1.7 | 0.00 | 0.00 | 0.00 | 78 | 1018.3 |
| 20260504041623 | 61 | 78 | 0.0 | 1.7 | 0.00 | 0.00 | 0.00 | 78 | 1018.2 |
| 20260504040138 | 62 | 78 | 0.0 | 0.9 | 0.00 | 0.00 | 0.00 | 76 | 1018.2 |
| 20260504034635 | 63 | 78 | 0.0 | 1.7 | 0.00 | 0.00 | 0.00 | 74 | 1018.3 |
| 20260504033128 | 63 | 78 | 0.9 | 1.7 | 0.00 | 0.00 | 0.00 | 73 | 1018.2 |
| 20260504031629 | 64 | 78 | 0.0 | 1.7 | 0.00 | 0.00 | 0.00 | 72 | 1018.1 |
| 20260504030122 | 64 | 78 | 0.0 | 1.7 | 0.00 | 0.00 | 0.00 | 71 | 1018.1 |
| 20260504024622 | 65 | 78 | 0.0 | 1.7 | 0.00 | 0.00 | 0.00 | 70 | 1018.2 |
| 20260504023119 | 65 | 78 | 0.9 | 2.6 | 0.00 | 0.00 | 0.00 | 70 | 1018.1 |
| 20260504021640 | 66 | 79 | 0.9 | 3.5 | 0.00 | 0.00 | 0.00 | 69 | 1017.9 |
| 20260504020131 | 66 | 85 | 0.9 | 6.1 | 0.00 | 0.00 | 0.00 | 68 | 1017.7 |
| 20260504014633 | 66 | 67 | 1.7 | 6.1 | 0.00 | 0.00 | 0.00 | 68 | 1017.5 |
| 20260504013123 | 67 | 84 | 2.6 | 7.0 | 0.00 | 0.00 | 0.00 | 68 | 1017.2 |
| 20260504011637 | 67 | 107 | 0.9 | 7.8 | 0.00 | 0.00 | 0.00 | 66 | 1016.9 |
| 20260504010134 | 67 | 89 | 2.6 | 7.0 | 0.00 | 0.00 | 0.00 | 65 | 1016.8 |
| 20260504004635 | 68 | 99 | 2.6 | 6.1 | 0.00 | 0.00 | 0.00 | 63 | 1016.8 |
| 20260504003128 | 68 | 91 | 0.9 | 2.6 | 0.00 | 0.00 | 0.00 | 62 | 1016.7 |
| 20260504001631 | 69 | 92 | 0.9 | 6.1 | 0.00 | 0.00 | 0.00 | 60 | 1016.6 |
| 20260504000127 | 70 | 94 | 0.9 | 7.0 | 0.00 | 0.00 | 0.00 | 59 | 1016.6 |
| 20260503234639 | 71 | 79 | 1.7 | 6.1 | 0.00 | 0.00 | 0.00 | 57 | 1016.7 |
| 20260503233133 | 72 | 67 | 1.7 | 6.1 | 0.00 | 0.00 | 0.00 | 56 | 1016.7 |
| 20260503231630 | 72 | 84 | 1.7 | 7.0 | 0.00 | 0.00 | 0.00 | 55 | 1016.5 |
| 20260503230127 | 73 | 92 | 1.7 | 6.1 | 0.00 | 0.00 | 0.00 | 55 | 1016.3 |
| 20260503224643 | 73 | 84 | 2.6 | 7.8 | 0.00 | 0.00 | 0.00 | 54 | 1016.3 |
| 20260503223137 | 74 | 113 | 3.5 | 7.0 | 0.00 | 0.00 | 0.00 | 54 | 1016.3 |
| 20260503221633 | 74 | 117 | 3.5 | 9.6 | 0.00 | 0.00 | 0.00 | 54 | 1016.3 |
| 20260503220124 | 74 | 109 | 1.7 | 7.0 | 0.00 | 0.00 | 0.00 | 54 | 1016.3 |
| 20260503214629 | 75 | 72 | 2.6 | 11.3 | 0.00 | 0.00 | 0.00 | 52 | 1016.3 |
| 20260503213131 | 74 | 22 | 3.5 | 7.8 | 0.00 | 0.00 | 0.00 | 54 | 1016.1 |
| 20260503211627 | 74 | 129 | 1.7 | 7.8 | 0.00 | 0.00 | 0.00 | 53 | 1016.2 |
| 20260503210126 | 76 | 90 | 3.5 | 9.6 | 0.00 | 0.00 | 0.00 | 50 | 1016.2 |
| 20260503204623 | 76 | 115 | 2.6 | 7.8 | 0.00 | 0.00 | 0.00 | 51 | 1016.3 |
| 20260503203124 | 76 | 72 | 3.5 | 7.0 | 0.00 | 0.00 | 0.00 | 50 | 1016.4 |